,,PA_Meas_PMT16A,,PR_Meas_QMR101_102,,RH_Meas_QMH101,,SR_Meas_QMS101,,TA_Meas_QMH101,,GenWind,,GenWind,
time,status,PA,status,PR,status,RH,status,SR,status,TA,status,DirAvg,status,SpdAvg,
2015-03-30, 00:00:04,VALID,917.995,VALID,0,VALID,93.9357,VALID,0,VALID,21.0876,VALID,173,VALID,1.14844,
2015-03-30, 00:01:04,VALID,917.975,VALID,0,VALID,93.9586,VALID,0,VALID,21.0681,VALID,141,VALID,1.35117,
2015-03-30, 00:02:04,VALID,917.972,VALID,0,VALID,94.0425,VALID,0,VALID,21.0486,VALID,129,VALID,1.57227,
2015-03-30, 00:03:04,VALID,917.9,VALID,0,VALID,94.2635,VALID,0,VALID,21.0486,VALID,143,VALID,1.89063,
2015-03-30, 00:04:04,VALID,917.89,VALID,0,VALID,94.233,VALID,0,VALID,21.0681,VALID,128,VALID,1.15859,
2015-03-30, 00:05:04,VALID,917.854,VALID,0,VALID,94.2254,VALID,0,VALID,21.0291,VALID,136,VALID,1.1293,
2015-03-30, 00:06:04,VALID,917.83,VALID,0,VALID,94.3321,VALID,0.107441,VALID,20.9706,VALID,135,VALID,1.43203,
2015-03-30, 00:07:04,VALID,917.829,VALID,0,VALID,94.4465,VALID,0,VALID,20.9331,VALID,127,VALID,1.09687,
2015-03-30, 00:08:04,VALID,917.84,VALID,0,VALID,94.6295,VALID,0,VALID,20.873,VALID,118,VALID,1.04414,
2015-03-30, 00:09:04,VALID,917.797,VALID,0,VALID,94.8582,VALID,0,VALID,20.834,VALID,133,VALID,1.21133,
2015-03-30, 00:10:04,VALID,917.82,VALID,0,VALID,95.064,VALID,0,VALID,20.8129,VALID,130,VALID,1.46719,
2015-03-30, 00:11:04,VALID,917.779,VALID,0,VALID,95.186,VALID,0,VALID,20.8145,VALID,126,VALID,1.30078,
2015-03-30, 00:12:04,VALID,917.796,VALID,0,VALID,95.247,VALID,0,VALID,20.795,VALID,122,VALID,1.00156,
2015-03-30, 00:13:04,VALID,917.763,VALID,0,VALID,95.247,VALID,0,VALID,20.7755,VALID,109,VALID,1.53398,
2015-03-30, 00:14:04,VALID,917.78,VALID,0,VALID,95.3308,VALID,0,VALID,20.756,VALID,110,VALID,1.34883,
2015-03-30, 00:15:04,VALID,917.761,VALID,0,VALID,95.468,VALID,0,VALID,20.717,VALID,134,VALID,1.39453,
2015-03-30, 00:16:04,VALID,917.716,VALID,0,VALID,95.5138,VALID,0,VALID,20.717,VALID,118,VALID,1.10625,
2015-03-30, 00:17:04,VALID,917.705,VALID,0,VALID,95.5367,VALID,0,VALID,20.717,VALID,119,VALID,1.05195,
2015-03-30, 00:18:04,VALID,917.713,VALID,0,VALID,95.6053,VALID,0,VALID,20.6975,VALID,105,VALID,1.9332,
2015-03-30, 00:19:04,VALID,917.712,VALID,0,VALID,95.6891,VALID,0,VALID,20.6975,VALID,121,VALID,1.34219,
2015-03-30, 00:20:04,VALID,917.676,VALID,0,VALID,95.7044,VALID,0,VALID,20.6975,VALID,140,VALID,1.5125,
2015-03-30, 00:21:04,VALID,917.696,VALID,0,VALID,95.773,VALID,0,VALID,20.717,VALID,138,VALID,1.01328,
2015-03-30, 00:22:04,VALID,917.72,VALID,0,VALID,95.7654,VALID,0,VALID,20.717,VALID,125,VALID,1.45977,
2015-03-30, 00:23:04,VALID,917.71,VALID,0,VALID,95.7654,VALID,0,VALID,20.678,VALID,106,VALID,1.16055,
2015-03-30, 00:24:04,VALID,917.744,VALID,0,VALID,95.7654,VALID,0,VALID,20.6179,VALID,112,VALID,1.1293,
2015-03-30, 00:25:04,VALID,917.731,VALID,0,VALID,95.8416,VALID,0,VALID,20.6194,VALID,110,VALID,1.35273,
2015-03-30, 00:26:04,VALID,917.763,VALID,0,VALID,95.9483,VALID,0,VALID,20.5999,VALID,107,VALID,1.53203,
2015-03-30, 00:27:04,VALID,917.759,VALID,0,VALID,96.0169,VALID,0,VALID,20.5999,VALID,103,VALID,1.49336,
2015-03-30, 00:28:04,VALID,917.736,VALID,0,VALID,96.0703,VALID,0,VALID,20.6194,VALID,115,VALID,1.62617,
2015-03-30, 00:29:04,VALID,917.759,VALID,0,VALID,96.0703,VALID,0,VALID,20.639,VALID,107,VALID,1.71055,
2015-03-30, 00:30:04,VALID,917.727,VALID,0,VALID,95.9559,VALID,0,VALID,20.6975,VALID,117,VALID,1.51914,
2015-03-30, 00:31:04,VALID,917.759,VALID,0,VALID,95.7806,VALID,0,VALID,20.717,VALID,104,VALID,1.20781,
2015-03-30, 00:32:04,VALID,917.739,VALID,0,VALID,95.6815,VALID,0,VALID,20.717,VALID,121,VALID,1.925,
2015-03-30, 00:33:04,VALID,917.726,VALID,0,VALID,95.529,VALID,0,VALID,20.756,VALID,111,VALID,1.64961,
2015-03-30, 00:34:04,VALID,917.713,VALID,0,VALID,95.4071,VALID,0,VALID,20.7755,VALID,120,VALID,1.76875,
2015-03-30, 07:30:04,VALID,917.355,VALID,0,VALID,88.4392,VALID,66.2912,VALID,21.2632,VALID,140,VALID,1.83594,
2015-03-30, 07:31:04,VALID,917.391,VALID,0,VALID,88.3935,VALID,62.101,VALID,21.2827,VALID,127,VALID,1.72266,
2015-03-30, 07:32:04,VALID,917.383,VALID,0,VALID,88.3173,VALID,62.7456,VALID,21.2616,VALID,108,VALID,1.8418,
2015-03-30, 07:33:04,VALID,917.409,VALID,0,VALID,88.3401,VALID,66.3986,VALID,21.2827,VALID,136,VALID,1.90508,
2015-03-30, 07:34:04,VALID,917.398,VALID,0,VALID,88.6908,VALID,65.9689,VALID,21.2827,VALID,129,VALID,0.873438,
2015-03-30, 07:35:04,VALID,917.409,VALID,0,VALID,88.1648,VALID,68.44,VALID,21.3006,VALID,131,VALID,1.81758,
2015-03-30, 07:36:04,VALID,917.4,VALID,0,VALID,87.7226,VALID,70.8037,VALID,21.3006,VALID,141,VALID,1.80195,
2015-03-30, 07:37:04,VALID,917.419,VALID,0,VALID,87.9895,VALID,82.5148,VALID,21.3201,VALID,136,VALID,1.96367,
2015-03-30, 07:38:04,VALID,917.433,VALID,0,VALID,88.1648,VALID,79.2916,VALID,21.3201,VALID,136,VALID,1.83203,
2015-03-30, 07:39:04,VALID,917.429,VALID,0,VALID,88.2258,VALID,72.5228,VALID,21.3412,VALID,137,VALID,1.71289,
2015-03-30, 07:40:04,VALID,917.409,VALID,0,VALID,87.959,VALID,69.5144,VALID,21.3006,VALID,137,VALID,2.30078,
2015-03-30, 07:41:04,VALID,917.422,VALID,0,VALID,87.3491,VALID,61.4563,VALID,21.3591,VALID,138,VALID,2.08008,
2015-03-30, 07:42:04,VALID,917.436,VALID,0,VALID,87.8522,VALID,65.8614,VALID,21.3591,VALID,133,VALID,1.86289,
2015-03-30, 07:43:04,VALID,917.443,VALID,0,VALID,88.1572,VALID,72.8451,VALID,21.3396,VALID,123,VALID,1.42773,
2015-03-30, 07:44:04,VALID,917.505,VALID,0,VALID,88.1191,VALID,67.1507,VALID,21.3201,VALID,121,VALID,2.29297,
2015-03-30, 07:45:04,VALID,917.513,VALID,0,VALID,88.363,VALID,53.828,VALID,21.3217,VALID,133,VALID,1.45391,
2015-03-30, 07:46:04,VALID,917.544,VALID,0,VALID,87.7303,VALID,53.9355,VALID,21.3217,VALID,133,VALID,2.03359,
2015-03-30, 07:47:04,VALID,917.566,VALID,0,VALID,88.0047,VALID,58.8778,VALID,21.3217,VALID,109,VALID,1.24453,
2015-03-30, 07:48:04,VALID,917.567,VALID,0,VALID,87.8904,VALID,63.3903,VALID,21.3217,VALID,122,VALID,2.29297,
2015-03-30, 07:49:04,VALID,917.57,VALID,0,VALID,87.9437,VALID,63.3903,VALID,21.3217,VALID,108,VALID,2.31562,
2015-03-30, 07:50:04,VALID,917.582,VALID,0,VALID,88.0047,VALID,65.9689,VALID,21.2827,VALID,132,VALID,2.41992,
2015-03-30, 07:51:04,VALID,917.569,VALID,0,VALID,87.9742,VALID,108.193,VALID,21.2827,VALID,127,VALID,2.35313,
2015-03-30, 07:52:04,VALID,917.592,VALID,0,VALID,87.9513,VALID,217.783,VALID,21.2827,VALID,142,VALID,2.40469,
2015-03-30, 07:53:04,VALID,917.598,VALID,0,VALID,88.1343,VALID,273.867,VALID,21.3412,VALID,133,VALID,2.52617,
2015-03-30, 07:54:04,VALID,917.612,VALID,0,VALID,87.898,VALID,272.148,VALID,21.4388,VALID,121,VALID,1.84219,
2015-03-30, 07:55:04,VALID,917.688,VALID,0,VALID,86.9222,VALID,171.154,VALID,21.5559,VALID,123,VALID,2.43242,
2015-03-30, 07:56:04,VALID,917.691,VALID,0,VALID,86.9603,VALID,161.484,VALID,21.6534,VALID,150,VALID,1.54648,
2015-03-30, 07:57:04,VALID,917.715,VALID,0,VALID,86.3962,VALID,82.6222,VALID,21.6729,VALID,144,VALID,2.0418,
2015-03-30, 07:58:04,VALID,917.734,VALID,0,VALID,86.4419,VALID,190.063,VALID,21.6729,VALID,137,VALID,1.56133,
2015-03-30, 07:59:04,VALID,917.774,VALID,0,VALID,86.1675,VALID,91.6473,VALID,21.6534,VALID,142,VALID,1.54961,
2015-03-30, 08:00:04,VALID,917.79,VALID,0,VALID,85.9616,VALID,99.3831,VALID,21.6323,VALID,156,VALID,2.38203,
2015-03-30, 08:01:04,VALID,917.841,VALID,0,VALID,86.5639,VALID,270.859,VALID,21.6323,VALID,125,VALID,1.68984,
2015-03-30, 08:02:04,VALID,917.836,VALID,0,VALID,86.5105,VALID,323.935,VALID,21.6713,VALID,129,VALID,2.47852,
2015-03-30, 08:03:04,VALID,917.857,VALID,0,VALID,86.3504,VALID,334.679,VALID,21.7493,VALID,139,VALID,2.51484,
2015-03-30, 08:04:04,VALID,917.867,VALID,0,VALID,85.9845,VALID,242.387,VALID,21.8842,VALID,135,VALID,1.74336,
2015-03-30, 08:05:04,VALID,917.893,VALID,0,VALID,86.1675,VALID,170.402,VALID,22.0615,VALID,106,VALID,0.717969,
2015-03-30, 08:06:04,VALID,917.87,VALID,0,VALID,84.071,VALID,174.699,VALID,22.042,VALID,151,VALID,2.51289,
2015-03-30, 08:07:04,VALID,917.894,VALID,0,VALID,84.2235,VALID,246.47,VALID,22.0615,VALID,129,VALID,2.4125,
2015-03-30, 08:08:04,VALID,917.934,VALID,0,VALID,84.1473,VALID,203.171,VALID,22.1396,VALID,136,VALID,2.00039,
2015-03-30, 08:09:04,VALID,917.95,VALID,0,VALID,84.9858,VALID,126.995,VALID,22.2159,VALID,115,VALID,1.72461,
2015-03-30, 08:10:04,VALID,917.951,VALID,0,VALID,82.6912,VALID,98.7384,VALID,22.2176,VALID,130,VALID,2.66914,
2015-03-30, 08:11:04,VALID,918.016,VALID,0,VALID,83.7356,VALID,113.136,VALID,22.1769,VALID,143,VALID,1.74688,
2015-03-30, 08:12:04,VALID,918.059,VALID,0,VALID,83.8652,VALID,334.572,VALID,22.1803,VALID,109,VALID,2.22266,
2015-03-30, 08:13:04,VALID,918.052,VALID,0,VALID,84.0634,VALID,247.007,VALID,22.1786,VALID,100,VALID,1.67852,
2015-03-30, 08:14:04,VALID,918.124,VALID,0,VALID,84.9249,VALID,119.475,VALID,22.2567,VALID,113,VALID,1.46914,
2015-03-30, 08:15:04,VALID,918.176,VALID,0,VALID,83.7813,VALID,121.838,VALID,22.2957,VALID,132,VALID,1.71367,
2015-03-30, 08:16:04,VALID,918.161,VALID,0,VALID,83.08,VALID,121.194,VALID,22.2583,VALID,121,VALID,2.23555,
2015-03-30, 08:17:04,VALID,918.189,VALID,0,VALID,83.5908,VALID,124.309,VALID,22.1786,VALID,124,VALID,1.96719,
2015-03-30, 08:18:04,VALID,918.178,VALID,0,VALID,84.3379,VALID,233.792,VALID,22.1005,VALID,135,VALID,1.64531,
2015-03-30, 08:19:04,VALID,918.159,VALID,0,VALID,84.1396,VALID,145.583,VALID,22.0615,VALID,116,VALID,2.36211,
2015-03-30, 08:20:04,VALID,918.181,VALID,0,VALID,83.5298,VALID,156.434,VALID,22.081,VALID,111,VALID,2.80234,
2015-03-30, 08:21:04,VALID,918.169,VALID,0,VALID,82.9885,VALID,182.757,VALID,22.0615,VALID,94,VALID,2.15195,
2015-03-30, 08:22:04,VALID,918.209,VALID,0,VALID,83.2553,VALID,181.146,VALID,22.081,VALID,116,VALID,2.73555,
2015-03-30, 08:23:04,VALID,918.216,VALID,0,VALID,83.1029,VALID,319.53,VALID,22.1201,VALID,101,VALID,2.26797,
2015-03-30, 08:24:04,VALID,918.203,VALID,0,VALID,82.1118,VALID,166.641,VALID,22.1786,VALID,145,VALID,3.59336,
2015-03-30, 08:25:04,VALID,918.235,VALID,0,VALID,84.0405,VALID,168.038,VALID,22.2567,VALID,58,VALID,1.23555,
2015-03-30, 08:26:04,VALID,918.226,VALID,0,VALID,82.0203,VALID,193.287,VALID,22.2762,VALID,111,VALID,2.26016,
2015-03-30, 08:27:04,VALID,918.205,VALID,0,VALID,83.4535,VALID,171.691,VALID,22.3542,VALID,110,VALID,1.84961,
2015-03-30, 08:28:04,VALID,918.239,VALID,0,VALID,82.2338,VALID,174.27,VALID,22.3152,VALID,137,VALID,2.95273,
2015-03-30, 08:29:04,VALID,918.248,VALID,0,VALID,81.5019,VALID,451.253,VALID,22.3347,VALID,118,VALID,3.35703,
2015-03-30, 08:30:04,VALID,918.24,VALID,0,VALID,82.4015,VALID,416.442,VALID,22.4111,VALID,120,VALID,2.05781,
2015-03-30, 08:31:04,VALID,918.268,VALID,0,VALID,81.6239,VALID,383.457,VALID,22.5689,VALID,106,VALID,2.33437,
2015-03-30, 08:32:04,VALID,918.254,VALID,0,VALID,82.9199,VALID,416.012,VALID,22.7641,VALID,111,VALID,1.36992,
2015-03-30, 08:33:04,VALID,918.262,VALID,0,VALID,81.8069,VALID,176.526,VALID,22.9185,VALID,145,VALID,1.92188,
2015-03-30, 08:34:04,VALID,918.299,VALID,0,VALID,81.0445,VALID,489.18,VALID,22.9592,VALID,107,VALID,1.28477,
2015-03-30, 08:35:04,VALID,918.307,VALID,0,VALID,81.5248,VALID,355.953,VALID,22.9983,VALID,96,VALID,1.93984,
2015-03-30, 08:36:04,VALID,918.343,VALID,0,VALID,79.8705,VALID,423.318,VALID,23.0763,VALID,98,VALID,1.00703,
2015-03-30, 08:37:04,VALID,918.345,VALID,0,VALID,80.3051,VALID,465.65,VALID,23.1527,VALID,129,VALID,0,
2015-03-30, 08:38:04,VALID,918.361,VALID,0,VALID,80.9683,VALID,495.089,VALID,23.3496,VALID,50,VALID,0.00429688,
2015-03-30, 08:39:04,VALID,918.331,VALID,0,VALID,79.2454,VALID,261.297,VALID,23.4863,VALID,118,VALID,0.169141,
2015-03-30, 08:40:04,VALID,918.371,VALID,0,VALID,77.2328,VALID,418.376,VALID,23.543,VALID,91,VALID,0.507813,
2015-03-30, 08:41:04,VALID,918.366,VALID,0,VALID,78.971,VALID,250.123,VALID,23.701,VALID,74,VALID,0,
2015-03-30, 08:42:04,VALID,918.376,VALID,0,VALID,77.7893,VALID,148.591,VALID,23.6602,VALID,129,VALID,1.42578,
2015-03-30, 08:43:04,VALID,918.418,VALID,0,VALID,77.7741,VALID,145.798,VALID,23.5626,VALID,81,VALID,2.52969,
2015-03-30, 08:44:04,VALID,918.426,VALID,0,VALID,79.2149,VALID,131.615,VALID,23.3674,VALID,92,VALID,0,
2015-03-30, 08:45:04,VALID,918.441,VALID,0,VALID,79.5199,VALID,135.913,VALID,23.2502,VALID,124,VALID,0.370313,
2015-03-30, 08:46:04,VALID,918.475,VALID,0,VALID,80.3279,VALID,138.169,VALID,23.1331,VALID,144,VALID,0.589453,
2015-03-30, 08:47:04,VALID,918.465,VALID,0,VALID,80.2288,VALID,141.607,VALID,22.977,VALID,87,VALID,0.55625,
2015-03-30, 08:48:04,VALID,918.45,VALID,0,VALID,80.9073,VALID,147.946,VALID,22.938,VALID,125,VALID,0.932422,
2015-03-30, 08:49:04,VALID,918.454,VALID,0,VALID,80.8844,VALID,158.798,VALID,22.8387,VALID,126,VALID,0.455078,
2015-03-30, 08:50:04,VALID,918.402,VALID,0,VALID,80.1907,VALID,162.236,VALID,22.8209,VALID,102,VALID,0.0859375,
2015-03-30, 08:51:04,VALID,918.492,VALID,0,VALID,82.1728,VALID,159.98,VALID,22.8599,VALID,121,VALID,0,
2015-03-30, 08:52:04,VALID,918.473,VALID,0,VALID,80.4118,VALID,301.695,VALID,22.8209,VALID,59,VALID,1.43945,
2015-03-30, 08:53:04,VALID,918.46,VALID,0,VALID,82.0432,VALID,176.203,VALID,22.8599,VALID,128,VALID,0.616406,
2015-03-30, 08:54:04,VALID,918.498,VALID,0,VALID,81.7306,VALID,169.327,VALID,22.8582,VALID,127,VALID,1.33984,
2015-03-30, 08:55:04,VALID,918.505,VALID,0,VALID,80.8235,VALID,157.616,VALID,22.8191,VALID,145,VALID,0.248047,
2015-03-30, 08:56:04,VALID,918.528,VALID,0,VALID,80.4042,VALID,154.393,VALID,22.8209,VALID,116,VALID,1.29102,
2015-03-30, 08:57:04,VALID,918.495,VALID,0,VALID,80.9607,VALID,234.007,VALID,22.8014,VALID,49,VALID,0.308594,
2015-03-30, 08:58:04,VALID,918.53,VALID,0,VALID,80.1297,VALID,197.369,VALID,22.7818,VALID,121,VALID,2.91797,
2015-03-30, 08:59:04,VALID,918.601,VALID,0,VALID,81.1894,VALID,201.882,VALID,22.7411,VALID,139,VALID,2.83477,
2015-03-30, 09:00:04,VALID,918.633,VALID,0,VALID,80.732,VALID,200.378,VALID,22.7216,VALID,129,VALID,1.59492,
2015-03-30, 09:01:04,VALID,918.592,VALID,0,VALID,80.7777,VALID,220.792,VALID,22.7623,VALID,57,VALID,2.78477,
2015-03-30, 09:02:04,VALID,918.614,VALID,0,VALID,80.7015,VALID,217.461,VALID,22.8404,VALID,112,VALID,1.30742,
2015-03-30, 09:03:04,VALID,918.632,VALID,0,VALID,80.4347,VALID,219.395,VALID,22.8794,VALID,123,VALID,2.74414,
2015-03-30, 09:04:04,VALID,918.615,VALID,0,VALID,80.427,VALID,406.342,VALID,22.9362,VALID,155,VALID,0.266797,
2015-03-30, 09:05:04,VALID,918.587,VALID,0,VALID,80.8235,VALID,237.66,VALID,23.0533,VALID,162,VALID,1.97695,
2015-03-30, 09:06:04,VALID,918.649,VALID,0,VALID,80.0992,VALID,244.214,VALID,23.2307,VALID,90,VALID,0.633984,
2015-03-30, 09:07:04,VALID,918.612,VALID,0,VALID,77.614,VALID,257.322,VALID,23.2112,VALID,71,VALID,1.37109,
2015-03-30, 09:08:04,VALID,918.612,VALID,0,VALID,78.7651,VALID,590.711,VALID,23.2094,VALID,62,VALID,2.59414,
2015-03-30, 09:09:04,VALID,918.613,VALID,0,VALID,78.91,VALID,335.539,VALID,23.3088,VALID,53,VALID,1.03281,
2015-03-30, 09:10:04,VALID,918.62,VALID,0,VALID,78.6203,VALID,236.048,VALID,23.4259,VALID,45,VALID,0.612891,
2015-03-30, 09:11:04,VALID,918.633,VALID,0,VALID,77.7817,VALID,675.697,VALID,23.5821,VALID,58,VALID,1.94766,
2015-03-30, 09:12:04,VALID,918.638,VALID,0,VALID,78.8261,VALID,653.672,VALID,23.7382,VALID,62,VALID,1.78164,
2015-03-30, 09:13:04,VALID,918.695,VALID,0,VALID,78.0714,VALID,446.096,VALID,23.8145,VALID,118,VALID,3.06289,
2015-03-30, 09:14:04,VALID,918.688,VALID,0,VALID,74.8238,VALID,220.577,VALID,23.8731,VALID,135,VALID,1.93867,
2015-03-30, 09:15:04,VALID,918.707,VALID,0,VALID,75.9673,VALID,393.342,VALID,23.7169,VALID,90,VALID,2.04258,
2015-03-30, 09:16:04,VALID,918.684,VALID,0,VALID,76.2037,VALID,274.297,VALID,23.6797,VALID,94,VALID,1.90195,
2015-03-30, 09:17:04,VALID,918.732,VALID,0,VALID,76.623,VALID,441.046,VALID,23.6797,VALID,119,VALID,1.54258,
2015-03-30, 09:18:04,VALID,918.732,VALID,0,VALID,77.8656,VALID,229.494,VALID,23.6797,VALID,56,VALID,2.09102,
2015-03-30, 09:19:04,VALID,918.781,VALID,0,VALID,76.8821,VALID,421.707,VALID,23.6406,VALID,127,VALID,1.94375,
2015-03-30, 09:20:04,VALID,918.793,VALID,0,VALID,77.5835,VALID,747.576,VALID,23.6406,VALID,116,VALID,1.64297,
2015-03-30, 09:21:04,VALID,918.767,VALID,0,VALID,75.731,VALID,266.561,VALID,23.7578,VALID,116,VALID,2.08125,
2015-03-30, 09:22:04,VALID,918.766,VALID,0,VALID,75.8301,VALID,225.734,VALID,23.8944,VALID,43,VALID,2.89805,
2015-03-30, 09:23:04,VALID,918.752,VALID,0,VALID,75.2736,VALID,711.798,VALID,23.9316,VALID,60,VALID,0.00195313,
2015-03-30, 09:24:04,VALID,918.787,VALID,0,VALID,75.4489,VALID,681.929,VALID,24.0115,VALID,136,VALID,1.48945,
2015-03-30, 09:25:04,VALID,918.782,VALID,0,VALID,75.1364,VALID,569.76,VALID,24.0701,VALID,123,VALID,2.35078,
2015-03-30, 09:26:04,VALID,918.849,VALID,0,VALID,73.7642,VALID,453.079,VALID,24.1659,VALID,113,VALID,2.9793,
2015-03-30, 09:27:04,VALID,918.85,VALID,0,VALID,72.7045,VALID,662.697,VALID,24.0878,VALID,107,VALID,3.46992,
2015-03-30, 09:28:04,VALID,918.839,VALID,0,VALID,72.9027,VALID,644.539,VALID,24.0488,VALID,129,VALID,2.03906,
2015-03-30, 09:29:04,VALID,918.841,VALID,0,VALID,74.9382,VALID,634.225,VALID,24.1287,VALID,132,VALID,2.41172,
2015-03-30, 09:30:04,VALID,918.843,VALID,0,VALID,71.2027,VALID,650.556,VALID,24.0878,VALID,116,VALID,2.35781,
2015-03-30, 09:31:04,VALID,918.839,VALID,0,VALID,74.0462,VALID,223.263,VALID,24.1269,VALID,85,VALID,1.98945,
2015-03-30, 09:32:04,VALID,918.855,VALID,0,VALID,73.9929,VALID,214.667,VALID,23.9902,VALID,92,VALID,2.73594,
2015-03-30, 09:33:04,VALID,918.832,VALID,0,VALID,74.1987,VALID,255.388,VALID,23.8145,VALID,161,VALID,1.71367,
2015-03-30, 09:34:04,VALID,918.818,VALID,0,VALID,76.6763,VALID,671.722,VALID,23.795,VALID,128,VALID,0.00195313,
2015-03-30, 09:35:04,VALID,918.86,VALID,0,VALID,77.4463,VALID,319.53,VALID,23.8926,VALID,93,VALID,0.804688,
2015-03-30, 09:36:04,VALID,918.852,VALID,0,VALID,76.196,VALID,266.132,VALID,23.9707,VALID,87,VALID,0.678906,
2015-03-30, 09:37:04,VALID,918.835,VALID,0,VALID,74.4503,VALID,311.15,VALID,23.8536,VALID,130,VALID,1.6832,
2015-03-30, 09:38:04,VALID,918.839,VALID,0,VALID,76.8974,VALID,339.729,VALID,23.7932,VALID,91,VALID,0.935547,
2015-03-30, 09:39:04,VALID,918.854,VALID,0,VALID,75.6243,VALID,391.193,VALID,23.8145,VALID,53,VALID,2.23711,
2015-03-30, 09:40:04,VALID,918.854,VALID,0,VALID,74.8848,VALID,577.281,VALID,23.7968,VALID,82,VALID,2.14609,
2015-03-30, 09:41:04,VALID,918.843,VALID,0,VALID,77.149,VALID,276.876,VALID,23.8163,VALID,70,VALID,1.74883,
2015-03-30, 09:42:04,VALID,918.859,VALID,0,VALID,74.5951,VALID,365.73,VALID,23.8145,VALID,48,VALID,2.08516,
2015-03-30, 09:43:04,VALID,918.886,VALID,0,VALID,76.0588,VALID,370.994,VALID,23.9121,VALID,121,VALID,1.81484,
2015-03-30, 09:44:04,VALID,918.871,VALID,0,VALID,75.6395,VALID,482.733,VALID,24.0115,VALID,98,VALID,2.03281,
2015-03-30, 09:45:04,VALID,918.864,VALID,0,VALID,73.8938,VALID,698.905,VALID,24.086,VALID,82,VALID,2.65508,
2015-03-30, 09:46:04,VALID,918.872,VALID,0,VALID,74.0081,VALID,473.815,VALID,24.1055,VALID,56,VALID,2.93281,
2015-03-30, 09:47:04,VALID,918.83,VALID,0,VALID,74.2292,VALID,430.409,VALID,24.0665,VALID,43,VALID,3.06602,
2015-03-30, 09:48:04,VALID,918.887,VALID,0,VALID,73.1314,VALID,826.437,VALID,24.125,VALID,72,VALID,1.79766,
2015-03-30, 09:49:04,VALID,918.851,VALID,0,VALID,73.7794,VALID,708.145,VALID,24.1836,VALID,54,VALID,1.80586,
2015-03-30, 09:50:04,VALID,918.855,VALID,0,VALID,74.4122,VALID,344.779,VALID,24.2421,VALID,153,VALID,1.64023,
2015-03-30, 09:51:04,VALID,918.841,VALID,0,VALID,75.8377,VALID,320.819,VALID,24.3202,VALID,147,VALID,0.526953,
2015-03-30, 09:52:04,VALID,918.871,VALID,0,VALID,76.7907,VALID,253.776,VALID,24.4374,VALID,85,VALID,1.12812,
2015-03-30, 09:53:04,VALID,918.868,VALID,0,VALID,74.5189,VALID,252.164,VALID,24.2617,VALID,79,VALID,2.47813,
2015-03-30, 09:54:04,VALID,918.869,VALID,0,VALID,73.9395,VALID,266.884,VALID,24.0665,VALID,128,VALID,1.39922,
2015-03-30, 09:55:04,VALID,918.824,VALID,0,VALID,74.5265,VALID,280.959,VALID,24.0311,VALID,54,VALID,2.49219,
2015-03-30, 09:56:04,VALID,918.82,VALID,0,VALID,74.5418,VALID,301.265,VALID,23.9902,VALID,95,VALID,1.80898,
2015-03-30, 09:57:04,VALID,918.805,VALID,0,VALID,73.6574,VALID,309.753,VALID,23.9316,VALID,88,VALID,0.532812,
2015-03-30, 09:58:04,VALID,918.763,VALID,0,VALID,75.4108,VALID,384.317,VALID,24.0292,VALID,70,VALID,0.913672,
2015-03-30, 09:59:04,VALID,918.753,VALID,0,VALID,75.3422,VALID,360.465,VALID,24.1269,VALID,80,VALID,0.342187,
2015-03-30, 10:00:04,VALID,918.729,VALID,0,VALID,73.4364,VALID,545.586,VALID,24.0683,VALID,123,VALID,1.8043,
2015-03-30, 10:01:04,VALID,918.723,VALID,0,VALID,74.3359,VALID,874.141,VALID,24.0488,VALID,119,VALID,3.17383,
2015-03-30, 10:02:04,VALID,918.749,VALID,0,VALID,74.8696,VALID,568.041,VALID,24.1659,VALID,101,VALID,1.17461,
2015-03-30, 10:03:04,VALID,918.732,VALID,0,VALID,76.3866,VALID,292.455,VALID,24.3416,VALID,111,VALID,0.825391,
2015-03-30, 10:04:04,VALID,918.74,VALID,0,VALID,73.5202,VALID,253.346,VALID,24.4587,VALID,82,VALID,1.93594,
2015-03-30, 10:05:04,VALID,918.748,VALID,0,VALID,74.092,VALID,432.558,VALID,24.4197,VALID,95,VALID,1.55234,
2015-03-30, 10:06:04,VALID,918.754,VALID,0,VALID,75.2965,VALID,479.94,VALID,24.3593,VALID,55,VALID,1.25664,
2015-03-30, 10:07:04,VALID,918.8,VALID,0,VALID,75.6395,VALID,796.998,VALID,24.5564,VALID,49,VALID,0.658594,
2015-03-30, 10:08:04,VALID,918.799,VALID,0,VALID,72.5673,VALID,633.473,VALID,24.6345,VALID,107,VALID,0.0195313,
2015-03-30, 10:09:04,VALID,918.824,VALID,0,VALID,72.9256,VALID,765.196,VALID,24.693,VALID,112,VALID,1.25859,
2015-03-30, 10:10:04,VALID,918.742,VALID,0,VALID,73.322,VALID,464.898,VALID,24.7516,VALID,53,VALID,1.72773,
2015-03-30, 10:11:04,VALID,918.768,VALID,0,VALID,73.5812,VALID,227.453,VALID,24.7888,VALID,118,VALID,0.370313,
2015-03-30, 10:12:04,VALID,918.802,VALID,0,VALID,71.9955,VALID,323.398,VALID,24.9664,VALID,87,VALID,0.191797,
2015-03-30, 10:13:04,VALID,918.786,VALID,0,VALID,68.6031,VALID,829.016,VALID,24.8864,VALID,103,VALID,2.56328,
2015-03-30, 10:14:04,VALID,918.731,VALID,0,VALID,71.9117,VALID,376.581,VALID,24.7907,VALID,69,VALID,1.40508,
2015-03-30, 10:15:04,VALID,918.77,VALID,0,VALID,73.1848,VALID,289.339,VALID,24.7711,VALID,76,VALID,1.08672,
2015-03-30, 10:16:04,VALID,918.709,VALID,0,VALID,72.735,VALID,858.455,VALID,24.693,VALID,44,VALID,2.33281,
2015-03-30, 10:17:04,VALID,918.733,VALID,0,VALID,72.1404,VALID,821.817,VALID,24.6716,VALID,66,VALID,1.96914,
2015-03-30, 10:18:04,VALID,918.731,VALID,0,VALID,71.7211,VALID,819.561,VALID,24.6912,VALID,153,VALID,3.39922,
2015-03-30, 10:19:04,VALID,918.738,VALID,0,VALID,71.6906,VALID,807.528,VALID,24.6912,VALID,132,VALID,1.68984,
2015-03-30, 10:20:04,VALID,918.721,VALID,0,VALID,70.6691,VALID,809.677,VALID,24.6912,VALID,124,VALID,2.08633,
2015-03-30, 10:21:04,VALID,918.692,VALID,0,VALID,71.622,VALID,595.439,VALID,24.7302,VALID,151,VALID,2.16914,
2015-03-30, 10:22:04,VALID,918.747,VALID,0,VALID,70.6081,VALID,432.988,VALID,24.8864,VALID,104,VALID,1.8957,
2015-03-30, 10:23:04,VALID,918.727,VALID,0,VALID,71.5153,VALID,467.154,VALID,25.0036,VALID,94,VALID,1.23906,
2015-03-30, 10:24:04,VALID,918.755,VALID,0,VALID,69.2054,VALID,720.285,VALID,24.9059,VALID,93,VALID,2.90117,
2015-03-30, 10:25:04,VALID,918.692,VALID,0,VALID,71.2103,VALID,893.588,VALID,24.7497,VALID,91,VALID,1.06016,
2015-03-30, 10:26:04,VALID,918.637,VALID,0,VALID,68.3211,VALID,305.24,VALID,24.6912,VALID,61,VALID,3.1457,
2015-03-30, 10:27:04,VALID,918.65,VALID,0,VALID,69.7238,VALID,227.131,VALID,24.6326,VALID,58,VALID,3.63516,
2015-03-30, 10:28:04,VALID,918.704,VALID,0,VALID,71.4162,VALID,876.183,VALID,24.5545,VALID,79,VALID,2.12188,
2015-03-30, 10:29:04,VALID,918.693,VALID,0,VALID,72.2547,VALID,827.619,VALID,24.4764,VALID,78,VALID,1.4293,
2015-03-30, 10:30:04,VALID,918.689,VALID,0,VALID,71.7135,VALID,777.337,VALID,24.6326,VALID,86,VALID,4.04453,
2015-03-30, 10:31:04,VALID,918.703,VALID,0,VALID,71.7363,VALID,787.651,VALID,24.6326,VALID,113,VALID,1.83633,